EN

Hourly Weather Alotau

Today, 16 January, Saturday

Time Temperature Precipitation Wind Pressure Humidity
00:00 +27°C° 0.4 mm 3 mps 739 mmHg 86%
01:00 +27°C° 0.4 mm 4 mps 738 mmHg 87%
02:00 +27°C° 0 mm 4 mps 738 mmHg 87%
03:00 +27°C° 0 mm 4 mps 738 mmHg 86%
04:00 +27°C° 0 mm 4 mps 738 mmHg 86%
05:00 +27°C° 0 mm 4 mps 738 mmHg 85%
06:00 +28°C° 0 mm 4 mps 739 mmHg 83%
07:00 +28°C° 0 mm 5 mps 739 mmHg 82%
08:00 +29°C° 0 mm 4 mps 739 mmHg 76%
09:00 +32°C° 0 mm 4 mps 739 mmHg 70%
10:00 +33°C° 0 mm 4 mps 740 mmHg 62%
11:00 +33°C° 0 mm 4 mps 739 mmHg 61%
12:00 +34°C° 0 mm 4 mps 739 mmHg 60%
13:00 +34°C° 0 mm 4 mps 739 mmHg 58%
14:00 +34°C° 0.1 mm 4 mps 739 mmHg 61%
15:00 +33°C° 0.1 mm 4 mps 738 mmHg 63%
16:00 +33°C° 0 mm 3 mps 738 mmHg 65%
17:00 +31°C° 0 mm 3 mps 739 mmHg 71%
18:00 +30°C° 0 mm 3 mps 739 mmHg 77%
19:00 +29°C° 0 mm 3 mps 739 mmHg 83%
20:00 +28°C° 0 mm 3 mps 740 mmHg 84%
21:00 +28°C° 0 mm 3 mps 740 mmHg 84%
22:00 +28°C° 0 mm 2 mps 741 mmHg 83%
23:00 +28°C° 0 mm 2 mps 740 mmHg 84%

Tomorrow, 17 January, Sunday

Time Temperature Precipitation Wind Pressure Humidity
00:00 +28°C° 0 mm 2 mps 740 mmHg 84%
01:00 +27°C° 0 mm 2 mps 740 mmHg 85%
02:00 +27°C° 0 mm 2 mps 740 mmHg 86%
03:00 +27°C° 0 mm 2 mps 739 mmHg 87%
04:00 +27°C° 0 mm 2 mps 739 mmHg 87%
05:00 +28°C° 0 mm 3 mps 740 mmHg 86%
06:00 +28°C° 0 mm 3 mps 740 mmHg 85%
07:00 +28°C° 0 mm 3 mps 741 mmHg 84%
08:00 +29°C° 0 mm 3 mps 741 mmHg 79%
09:00 +30°C° 0 mm 4 mps 741 mmHg 74%
10:00 +32°C° 0 mm 4 mps 741 mmHg 69%
11:00 +33°C° 0 mm 4 mps 740 mmHg 67%
12:00 +33°C° 0 mm 4 mps 740 mmHg 65%
13:00 +34°C° 0 mm 4 mps 740 mmHg 64%
14:00 +33°C° 0 mm 4 mps 739 mmHg 65%
15:00 +33°C° 0 mm 4 mps 739 mmHg 66%
16:00 +33°C° 0 mm 4 mps 739 mmHg 66%
17:00 +31°C° 0 mm 3 mps 739 mmHg 72%
18:00 +30°C° 0 mm 3 mps 739 mmHg 78%
19:00 +28°C° 0 mm 3 mps 740 mmHg 83%
20:00 +28°C° 0 mm 3 mps 740 mmHg 85%
21:00 +28°C° 0 mm 3 mps 740 mmHg 86%
22:00 +28°C° 0 mm 3 mps 741 mmHg 88%
23:00 +28°C° 0.1 mm 3 mps 740 mmHg 89%

Day after tomorrow, 18 January, Monday

Time Temperature Precipitation Wind Pressure Humidity
00:00 +27°C° 0.1 mm 3 mps 740 mmHg 89%
01:00 +27°C° 0.1 mm 3 mps 740 mmHg 90%
02:00 +27°C° 0.1 mm 3 mps 740 mmHg 90%
03:00 +27°C° 0.1 mm 3 mps 740 mmHg 90%
04:00 +27°C° 0.1 mm 3 mps 739 mmHg 91%
05:00 +27°C° 0 mm 3 mps 740 mmHg 89%
06:00 +28°C° 0 mm 3 mps 740 mmHg 88%
07:00 +28°C° 0 mm 3 mps 741 mmHg 87%
08:00 +29°C° 0.1 mm 4 mps 741 mmHg 81%
09:00 +30°C° 0.1 mm 4 mps 741 mmHg 76%
10:00 +32°C° 0.1 mm 4 mps 741 mmHg 71%
11:00 +33°C° 0 mm 4 mps 741 mmHg 68%
12:00 +33°C° 0 mm 4 mps 740 mmHg 65%
13:00 +34°C° 0 mm 4 mps 740 mmHg 62%
14:00 +33°C° 0 mm 4 mps 740 mmHg 63%
15:00 +33°C° 0 mm 4 mps 739 mmHg 64%
16:00 +33°C° 0 mm 3 mps 739 mmHg 65%
17:00 +31°C° 0 mm 3 mps 739 mmHg 71%
18:00 +29°C° 0 mm 3 mps 739 mmHg 77%
19:00 +28°C° 0 mm 2 mps 740 mmHg 84%
20:00 +28°C° 0 mm 2 mps 740 mmHg 85%
21:00 +28°C° 0 mm 2 mps 741 mmHg 86%
22:00 +28°C° 0 mm 2 mps 741 mmHg 87%
23:00 +27°C° 0 mm 2 mps 741 mmHg 88%

19 January, Tuesday

Time Temperature Precipitation Wind Pressure Humidity
00:00 +27°C° 0 mm 2 mps 741 mmHg 88%
01:00 +27°C° 0 mm 2 mps 740 mmHg 88%
02:00 +27°C° 0 mm 2 mps 740 mmHg 88%
03:00 +27°C° 0 mm 2 mps 740 mmHg 88%
04:00 +27°C° 0 mm 2 mps 740 mmHg 88%
05:00 +27°C° 0 mm 3 mps 741 mmHg 87%
06:00 +28°C° 0 mm 3 mps 741 mmHg 86%
07:00 +28°C° 0 mm 3 mps 742 mmHg 86%
08:00 +29°C° 0 mm 3 mps 742 mmHg 80%
09:00 +30°C° 0 mm 3 mps 742 mmHg 74%
10:00 +33°C° 0 mm 3 mps 743 mmHg 69%
11:00 +33°C° 0 mm 3 mps 742 mmHg 65%
12:00 +34°C° 0 mm 3 mps 742 mmHg 61%
13:00 +35°C° 0 mm 3 mps 741 mmHg 58%
14:00 +34°C° 0 mm 3 mps 741 mmHg 57%
15:00 +34°C° 0 mm 2 mps 740 mmHg 57%
16:00 +34°C° 0 mm 2 mps 740 mmHg 57%
17:00 +31°C° 0 mm 2 mps 740 mmHg 65%
18:00 +30°C° 0 mm 2 mps 741 mmHg 74%
19:00 +28°C° 0 mm 2 mps 741 mmHg 82%
20:00 +28°C° 0 mm 2 mps 741 mmHg 83%
21:00 +28°C° 0 mm 2 mps 742 mmHg 84%
22:00 +27°C° 0 mm 2 mps 742 mmHg 84%
23:00 +27°C° 0 mm 2 mps 742 mmHg 84%

20 January, Wednesday

Time Temperature Precipitation Wind Pressure Humidity
00:00 +27°C° 0 mm 2 mps 742 mmHg 84%
01:00 +27°C° 0 mm 1 mps 741 mmHg 84%
02:00 +27°C° 0 mm 1 mps 741 mmHg 84%
03:00 +27°C° 0 mm 1 mps 741 mmHg 84%
04:00 +27°C° 0 mm 1 mps 741 mmHg 84%
05:00 +28°C° 0 mm 1 mps 741 mmHg 83%
06:00 +28°C° 0 mm 1 mps 742 mmHg 82%
07:00 +29°C° 0 mm 2 mps 742 mmHg 80%
08:00 +30°C° 0.1 mm 2 mps 742 mmHg 74%
09:00 +31°C° 0.1 mm 2 mps 742 mmHg 67%
10:00 +32°C° 0.1 mm 2 mps 743 mmHg 61%
11:00 +34°C° 0 mm 2 mps 742 mmHg 59%
12:00 +34°C° 0 mm 2 mps 742 mmHg 57%
13:00 +35°C° 0 mm 2 mps 741 mmHg 55%
14:00 +34°C° 0 mm 2 mps 741 mmHg 57%
15:00 +34°C° 0 mm 2 mps 740 mmHg 59%
16:00 +32°C° 0 mm 2 mps 740 mmHg 62%
17:00 +31°C° 0 mm 2 mps 740 mmHg 68%
18:00 +30°C° 0 mm 2 mps 741 mmHg 74%
19:00 +28°C° 0 mm 1 mps 741 mmHg 80%
20:00 +28°C° 0 mm 2 mps 741 mmHg 82%
21:00 +28°C° 0 mm 2 mps 742 mmHg 83%
22:00 +28°C° 0 mm 2 mps 742 mmHg 84%
23:00 +27°C° 0 mm 2 mps 742 mmHg 84%

21 January, Thursday

Time Temperature Precipitation Wind Pressure Humidity
00:00 +27°C° 0 mm 2 mps 741 mmHg 84%
01:00 +27°C° 0 mm 2 mps 741 mmHg 84%
02:00 +27°C° 0 mm 2 mps 741 mmHg 85%
03:00 +27°C° 0 mm 2 mps 740 mmHg 85%
04:00 +27°C° 0 mm 2 mps 740 mmHg 85%
05:00 +27°C° 0 mm 2 mps 740 mmHg 85%
06:00 +28°C° 0 mm 2 mps 741 mmHg 84%
07:00 +28°C° 0 mm 2 mps 741 mmHg 84%
08:00 +29°C° 0 mm 3 mps 741 mmHg 78%
09:00 +31°C° 0 mm 3 mps 742 mmHg 72%
10:00 +33°C° 0 mm 3 mps 742 mmHg 67%
11:00 +33°C° 0 mm 3 mps 741 mmHg 64%
12:00 +34°C° 0 mm 3 mps 740 mmHg 61%
13:00 +34°C° 0 mm 3 mps 740 mmHg 58%
14:00 +34°C° 0 mm 3 mps 739 mmHg 60%
15:00 +33°C° 0 mm 3 mps 739 mmHg 61%
16:00 +33°C° 0 mm 3 mps 739 mmHg 62%
17:00 +31°C° 0 mm 3 mps 739 mmHg 69%
18:00 +29°C° 0 mm 2 mps 739 mmHg 75%
19:00 +28°C° 0 mm 2 mps 739 mmHg 82%
20:00 +28°C° 0 mm 2 mps 740 mmHg 84%
21:00 +28°C° 0 mm 2 mps 740 mmHg 85%
22:00 +27°C° 0 mm 3 mps 740 mmHg 86%
23:00 +27°C° 0.1 mm 3 mps 740 mmHg 87%
Show more